Regional Weather Roundup
Issued by NWS

Home | Current Version | Previous Version | Graphics & Text | Print | Product List | Glossary On
Versions: 1 2 3 4 5 6 7 8 9 10 11 12 13 14 15 16 17 18 19 20 21 22 23 24 25 26 27 28 29 30 31 32 33 34 35 36 37 38 39 40 41 42 43 44 45 46 47 48 49 50
347
ASUS43 KFSD 220902
RWRSD

WEATHER ROUNDUP FOR SOUTH DAKOTA
NATIONAL WEATHER SERVICE SIOUX FALLS SD
400 AM CDT FRI MAY 22 2015

NOTE: "FAIR" INDICATES FEW OR NO CLOUDS BELOW 12,000 FEET WITH NO
SIGNIFICANT WEATHER AND/OR OBSTRUCTIONS TO VISIBILITY.


SDZ001>005-009-010-012>017-221000-
NORTHWEST AND NORTH CENTRAL SOUTH DAKOTA

CITY           SKY/WX    TMP DP  RH WIND       PRES   REMARKS
BUFFALO          N/A     44  30  57 E12       30.03F
FAITH            N/A     48  31  51 SE13      30.12F
MOBRIDGE       CLEAR     47  41  80 CALM      30.13R
$$

SDZ012>016-024>037-041>051-057-063-072>074-221000-
SOUTHWEST AND SOUTH CENTRAL SOUTH DAKOTA

CITY           SKY/WX    TMP DP  RH WIND       PRES   REMARKS
RAPID CTY ARPT CLOUDY    49  45  86 SE5       30.10S
PIERRE         CLEAR     42  35  76 CALM      30.13F
CUSTER         CLOUDY    45  40  82 VRB5      30.13S
ELLSWORTH AFB  CLOUDY    49  45  83 SE8       30.10R
PHILIP         CLEAR     43  35  73 E6        30.12S
PINE RIDGE     CLOUDY    52  42  69 SE13      30.12R
WINNER         FAIR      48  34  58 S6        30.16S
$$

SDZ004>011-016>023-039-040-221000-
NORTHEAST SOUTH DAKOTA

CITY           SKY/WX    TMP DP  RH WIND       PRES   REMARKS
ABERDEEN       CLEAR     49  38  65 E5        30.15S
WATERTOWN      CLEAR     44  37  76 CALM      30.17S
BROOKINGS      CLEAR     46  37  71 CALM      30.19S
$$

SDZ017-020-022-023-036>040-048>070-221000-
SOUTHEAST SOUTH DAKOTA

CITY           SKY/WX    TMP DP  RH WIND       PRES   REMARKS
SIOUX FALLS    CLEAR     45  41  86 CALM      30.17S
HURON          CLEAR     45  41  86 CALM      30.16S
CHAMBERLAIN    CLEAR     46  37  71 NE3       30.16F
MITCHELL       CLEAR     49  40  71 CALM      30.17S
YANKTON        CLEAR     45  37  76 CALM      30.17F
$$

ABBREVIATIONS USED IN REMARKS
   TC - TEMPERATURE IN CELSIUS
  WCI - WIND CHILL INDEX
   HX - HEAT INDEX
  VSB - VISIBILITY




USA.gov is the U.S. government's official web portal to all federal, state and local government web resources and services.